Hourly Weather Kozovka

Today, 20 October, Tuesday

Time Temperature Precipitation Wind Pressure Humidity
00:00 +1°C° 0 mm 6 mps 740 mmHg 85%
01:00 +1°C° 0 mm 6 mps 740 mmHg 86%
02:00 +1°C° 0 mm 5 mps 740 mmHg 88%
03:00 0°C° 0 mm 5 mps 740 mmHg 89%
04:00 -1°C° 0 mm 6 mps 740 mmHg 89%
05:00 -1°C° 0 mm 6 mps 740 mmHg 90%
06:00 -1°C° 0 mm 6 mps 740 mmHg 88%
07:00 -1°C° 0 mm 6 mps 741 mmHg 86%
08:00 +1°C° 0 mm 6 mps 741 mmHg 84%
09:00 0°C° 0 mm 7 mps 742 mmHg 79%
10:00 +2°C° 0 mm 7 mps 742 mmHg 74%
11:00 +3°C° 0 mm 7 mps 742 mmHg 69%
12:00 +3°C° 0 mm 7 mps 743 mmHg 69%
13:00 +3°C° 0 mm 7 mps 744 mmHg 69%
14:00 +3°C° 0 mm 6 mps 744 mmHg 68%
15:00 +2°C° 0 mm 5 mps 744 mmHg 72%
16:00 +3°C° 0 mm 4 mps 744 mmHg 75%
17:00 +2°C° 0 mm 3 mps 745 mmHg 78%
18:00 +3°C° 0 mm 2 mps 745 mmHg 80%
19:00 +2°C° 0 mm 2 mps 745 mmHg 82%
20:00 +2°C° 0 mm 2 mps 745 mmHg 84%
21:00 +2°C° 0 mm 2 mps 745 mmHg 84%
22:00 +2°C° 0 mm 2 mps 745 mmHg 85%
23:00 +2°C° 0 mm 2 mps 745 mmHg 85%

Tomorrow, 21 October, Wednesday

Time Temperature Precipitation Wind Pressure Humidity
00:00 +2°C° 0 mm 2 mps 745 mmHg 84%
01:00 +3°C° 0 mm 2 mps 745 mmHg 83%
02:00 +3°C° 0 mm 2 mps 745 mmHg 82%
03:00 +2°C° 0 mm 3 mps 745 mmHg 82%
04:00 +2°C° 0 mm 3 mps 744 mmHg 82%
05:00 +1°C° 0 mm 4 mps 744 mmHg 82%
06:00 +1°C° 0.4 mm 4 mps 743 mmHg 85%
07:00 +3°C° 0.4 mm 4 mps 743 mmHg 88%
08:00 +2°C° 0.4 mm 5 mps 742 mmHg 91%
09:00 +2°C° 0.7 mm 5 mps 742 mmHg 91%
10:00 +4°C° 0.7 mm 4 mps 742 mmHg 91%
11:00 +4°C° 0.7 mm 4 mps 741 mmHg 91%
12:00 +4°C° 0.2 mm 4 mps 741 mmHg 91%
13:00 +4°C° 0.2 mm 4 mps 741 mmHg 92%
14:00 +4°C° 0.2 mm 3 mps 740 mmHg 93%
15:00 +4°C° 0.1 mm 3 mps 740 mmHg 94%
16:00 +4°C° 0.1 mm 3 mps 740 mmHg 95%
17:00 +5°C° 0.1 mm 2 mps 740 mmHg 96%
18:00 +5°C° 0 mm 2 mps 740 mmHg 96%
19:00 +5°C° 0 mm 2 mps 740 mmHg 96%
20:00 +6°C° 0 mm 1 mps 741 mmHg 96%
21:00 +6°C° 0 mm 1 mps 740 mmHg 96%
22:00 +6°C° 0 mm 1 mps 740 mmHg 96%
23:00 +6°C° 0 mm 1 mps 740 mmHg 96%

Day after tomorrow, 22 October, Thursday

Time Temperature Precipitation Wind Pressure Humidity
00:00 +5°C° 0 mm 2 mps 740 mmHg 96%
01:00 +5°C° 0 mm 2 mps 741 mmHg 96%
02:00 +5°C° 0 mm 2 mps 741 mmHg 96%
03:00 +4°C° 0 mm 3 mps 740 mmHg 96%
04:00 +4°C° 0 mm 3 mps 740 mmHg 95%
05:00 +4°C° 0 mm 4 mps 739 mmHg 95%
06:00 +5°C° 0.6 mm 4 mps 739 mmHg 95%
07:00 +5°C° 0.6 mm 4 mps 739 mmHg 96%
08:00 +5°C° 0.6 mm 5 mps 738 mmHg 96%
09:00 +6°C° 0.1 mm 5 mps 738 mmHg 93%
10:00 +7°C° 0.1 mm 6 mps 738 mmHg 89%
11:00 +8°C° 0.1 mm 6 mps 738 mmHg 85%
12:00 +9°C° 0 mm 6 mps 738 mmHg 82%
13:00 +10°C° 0 mm 6 mps 738 mmHg 80%
14:00 +11°C° 0 mm 6 mps 738 mmHg 77%
15:00 +10°C° 0 mm 6 mps 737 mmHg 81%
16:00 +10°C° 0 mm 5 mps 737 mmHg 84%
17:00 +9°C° 0 mm 5 mps 737 mmHg 88%
18:00 +9°C° 0 mm 5 mps 737 mmHg 89%
19:00 +10°C° 0 mm 4 mps 737 mmHg 90%
20:00 +10°C° 0 mm 4 mps 738 mmHg 91%
21:00 +10°C° 0 mm 4 mps 738 mmHg 92%
22:00 +8°C° 0 mm 4 mps 737 mmHg 93%
23:00 +8°C° 0 mm 4 mps 737 mmHg 93%

23 October, Friday

Time Temperature Precipitation Wind Pressure Humidity
00:00 +8°C° 0 mm 4 mps 737 mmHg 94%
01:00 +8°C° 0 mm 4 mps 737 mmHg 94%
02:00 +8°C° 0 mm 4 mps 737 mmHg 95%
03:00 +8°C° 0 mm 4 mps 737 mmHg 95%
04:00 +8°C° 0 mm 4 mps 737 mmHg 95%
05:00 +8°C° 0 mm 4 mps 737 mmHg 95%
06:00 +8°C° 0 mm 5 mps 736 mmHg 94%
07:00 +8°C° 0 mm 5 mps 736 mmHg 93%
08:00 +9°C° 0 mm 5 mps 736 mmHg 93%
09:00 +9°C° 0.1 mm 5 mps 735 mmHg 90%
10:00 +10°C° 0.1 mm 6 mps 735 mmHg 88%
11:00 +10°C° 0.1 mm 6 mps 735 mmHg 86%
12:00 +10°C° 0.3 mm 6 mps 735 mmHg 86%
13:00 +10°C° 0.3 mm 7 mps 735 mmHg 87%
14:00 +10°C° 0.3 mm 7 mps 734 mmHg 87%
15:00 +10°C° 0.1 mm 7 mps 734 mmHg 88%
16:00 +10°C° 0.1 mm 6 mps 734 mmHg 88%
17:00 +10°C° 0.1 mm 6 mps 733 mmHg 89%
18:00 +10°C° 0.1 mm 6 mps 733 mmHg 90%
19:00 +9°C° 0.1 mm 5 mps 733 mmHg 92%
20:00 +10°C° 0.1 mm 4 mps 734 mmHg 93%
21:00 +10°C° 0 mm 4 mps 734 mmHg 93%
22:00 +10°C° 0 mm 4 mps 734 mmHg 93%
23:00 +10°C° 0 mm 4 mps 734 mmHg 94%

24 October, Saturday

Time Temperature Precipitation Wind Pressure Humidity
00:00 +8°C° 0 mm 4 mps 734 mmHg 94%
01:00 +8°C° 0 mm 5 mps 734 mmHg 94%
02:00 +8°C° 0 mm 5 mps 734 mmHg 93%
03:00 +8°C° 0 mm 4 mps 734 mmHg 94%
04:00 +7°C° 0 mm 4 mps 734 mmHg 94%
05:00 +7°C° 0 mm 4 mps 734 mmHg 94%
06:00 +7°C° 0 mm 4 mps 734 mmHg 94%
07:00 +7°C° 0 mm 4 mps 734 mmHg 93%
08:00 +7°C° 0 mm 4 mps 734 mmHg 93%
09:00 +8°C° 0 mm 5 mps 734 mmHg 89%
10:00 +9°C° 0 mm 5 mps 735 mmHg 86%
11:00 +10°C° 0 mm 5 mps 735 mmHg 82%
12:00 +11°C° 0 mm 4 mps 735 mmHg 82%
13:00 +11°C° 0 mm 4 mps 734 mmHg 82%
14:00 +11°C° 0 mm 3 mps 734 mmHg 82%
15:00 +11°C° 0.3 mm 3 mps 734 mmHg 84%
16:00 +10°C° 0.3 mm 3 mps 733 mmHg 87%
17:00 +10°C° 0.3 mm 3 mps 733 mmHg 90%
18:00 +10°C° 0.3 mm 3 mps 733 mmHg 89%
19:00 +8°C° 0.3 mm 4 mps 733 mmHg 88%
20:00 +8°C° 0.3 mm 4 mps 733 mmHg 87%
21:00 +8°C° 0.2 mm 4 mps 733 mmHg 89%
22:00 +7°C° 0.2 mm 4 mps 732 mmHg 90%
23:00 +7°C° 0.2 mm 4 mps 732 mmHg 92%

25 October, Sunday

Time Temperature Precipitation Wind Pressure Humidity
00:00 +7°C° 0.5 mm 4 mps 732 mmHg 91%
01:00 +7°C° 0.5 mm 4 mps 732 mmHg 90%
02:00 +6°C° 0.5 mm 4 mps 732 mmHg 90%
03:00 +6°C° 0.2 mm 5 mps 733 mmHg 89%
04:00 +6°C° 0.2 mm 5 mps 733 mmHg 89%
05:00 +7°C° 0.2 mm 6 mps 733 mmHg 88%
06:00 +5°C° 0 mm 6 mps 734 mmHg 88%
07:00 +5°C° 0 mm 6 mps 734 mmHg 87%
08:00 +4°C° 0 mm 6 mps 735 mmHg 87%
09:00 +5°C° 0 mm 6 mps 736 mmHg 85%
10:00 +5°C° 0 mm 6 mps 737 mmHg 84%
11:00 +5°C° 0 mm 7 mps 738 mmHg 82%
12:00 +7°C° 0 mm 6 mps 738 mmHg 79%
13:00 +7°C° 0 mm 6 mps 739 mmHg 76%
14:00 +7°C° 0 mm 6 mps 739 mmHg 73%
15:00 +6°C° 0 mm 5 mps 740 mmHg 76%
16:00 +5°C° 0 mm 4 mps 740 mmHg 80%
17:00 +4°C° 0 mm 3 mps 740 mmHg 83%
18:00 +4°C° 0 mm 3 mps 741 mmHg 86%
19:00 +3°C° 0 mm 3 mps 741 mmHg 88%
20:00 +4°C° 0 mm 2 mps 742 mmHg 91%
21:00 +4°C° 0 mm 2 mps 742 mmHg 92%
22:00 +3°C° 0 mm 2 mps 742 mmHg 92%
23:00 +3°C° 0 mm 2 mps 743 mmHg 92%

26 October, Monday

Time Temperature Precipitation Wind Pressure Humidity
00:00 +3°C° 0 mm 2 mps 743 mmHg 92%
01:00 +3°C° 0 mm 2 mps 743 mmHg 93%
02:00 +3°C° 0 mm 2 mps 743 mmHg 93%
03:00 +3°C° 0 mm 2 mps 743 mmHg 94%
04:00 +2°C° 0 mm 2 mps 743 mmHg 94%
05:00 +2°C° 0 mm 2 mps 743 mmHg 94%
06:00 +2°C° 0 mm 2 mps 743 mmHg 94%
07:00 +3°C° 0 mm 2 mps 744 mmHg 94%
08:00 +3°C° 0 mm 2 mps 744 mmHg 94%
09:00 +4°C° 0 mm 2 mps 744 mmHg 90%
10:00 +6°C° 0 mm 2 mps 744 mmHg 86%
11:00 +7°C° 0 mm 2 mps 744 mmHg 82%
12:00 +8°C° 0 mm 2 mps 744 mmHg 80%
13:00 +8°C° 0 mm 2 mps 743 mmHg 78%
14:00 +9°C° 0 mm 2 mps 743 mmHg 76%
15:00 +8°C° 0 mm 2 mps 743 mmHg 80%
16:00 +7°C° 0 mm 2 mps 743 mmHg 85%
17:00 +6°C° 0 mm 2 mps 743 mmHg 89%
18:00 +6°C° 0 mm 2 mps 743 mmHg 90%
19:00 +6°C° 0 mm 1 mps 743 mmHg 90%
20:00 +6°C° 0 mm 1 mps 743 mmHg 91%
21:00 +6°C° 0 mm 1 mps 743 mmHg 90%
22:00 +5°C° 0 mm 1 mps 743 mmHg 90%
23:00 +5°C° 0 mm 1 mps 743 mmHg 90%
Show more